Wind_Speed
32 32 32 32 32 32 33 33 32 33 33 33 33 33 34 34 34 35 34 34 34 35 35 35 35 35 35 35 35 35 35 35 34 34 34 34 35 36 36 37 37 38 38
33 33 33 33 33 33 33 33 32 32 33 33 33 34 34 34 34 35 36 36 36 35 36 36 35 35 35 35 36 36 37 37 37 36 35 35 36 37 38 38 38 38 38
34 34 33 33 34 33 32 32 32 32 32 33 33 33 33 34 35 36 37 37 37 37 37 37 37 37 36 37 37 37 38 38 39 38 37 37 38 38 39 39 39 39 38
33 34 33 33 34 34 33 33 33 32 32 32 33 33 34 34 35 36 36 37 37 38 38 38 38 37 37 38 38 38 39 40 39 39 39 38 39 39 40 40 40 40 39
33 33 34 34 34 34 34 33 33 33 33 33 33 34 35 35 36 37 37 38 38 38 38 38 38 38 39 39 39 39 40 41 41 40 39 40 40 40 40 40 40 39 39
32 32 32 32 32 33 33 33 33 34 34 35 35 35 36 37 37 38 38 38 39 39 39 40 40 40 41 41 41 41 41 41 41 41 41 41 42 42 41 41 41 41 40
32 33 33 33 34 34 34 35 34 34 35 35 36 36 37 37 37 38 38 39 39 40 41 42 42 41 42 42 42 42 42 42 42 42 43 43 43 43 43 43 43 42 41
33 34 35 35 36 36 35 35 35 35 36 37 37 38 38 38 39 39 39 39 40 41 42 42 42 42 42 43 43 43 44 44 44 44 44 44 44 45 45 44 44 43 43
35 36 36 36 36 36 36 36 36 37 37 38 38 39 39 39 40 40 40 40 40 40 41 42 42 42 42 43 43 44 44 44 45 45 45 44 45 45 44 44 43 43 42
36 37 37 37 37 38 38 38 39 39 39 39 39 40 39 40 40 41 41 41 41 41 42 42 43 43 43 43 43 44 44 45 46 46 46 45 44 44 43 43 43 43 43
38 38 39 38 38 39 39 40 40 40 40 40 41 41 41 41 41 42 42 42 42 42 42 43 43 43 43 43 44 44 44 45 45 46 46 45 44 43 42 42 43 43 43
39 39 40 40 40 40 41 41 42 42 42 43 43 43 43 43 43 43 42 43 43 43 43 43 44 44 44 44 44 43 43 43 44 44 44 44 44 43 43 43 43 44 44
40 40 40 41 41 42 42 42 43 43 44 44 44 44 44 44 44 44 44 44 44 43 43 44 44 44 44 44 44 43 43 43 43 43 43 43 43 43 42 43 44 44 44
41 41 41 42 42 42 43 43 44 44 45 45 45 45 45 45 45 45 45 45 45 44 43 42 43 43 43 43 43 42 42 42 42 42 41 42 42 42 42 43 43 44 43
43 43 43 43 43 43 43 44 44 44 45 46 46 46 46 46 46 46 45 45 44 43 43 43 43 43 43 42 42 42 42 41 41 41 42 42 42 42 42 43 43 42 42
42 43 43 43 43 43 43 43 44 45 45 46 46 46 46 46 45 44 44 43 43 42 43 43 43 43 43 43 42 42 42 42 41 42 42 42 42 42 42 42 42 42 41
43 43 44 44 44 44 44 44 44 44 44 45 45 45 45 45 44 44 42 42 42 42 41 41 41 42 42 42 42 42 42 42 42 42 42 42 42 43 42 42 42 41 41
45 45 45 45 45 44 44 44 44 44 43 43 43 43 43 43 43 43 42 41 41 41 41 41 41 42 42 42 42 42 42 42 42 42 42 42 42 43 42 42 41 41 40
45 45 45 44 44 44 43 43 43 43 43 43 43 42 42 42 42 42 41 41 41 41 42 42 42 42 42 42 42 43 43 43 42 42 43 43 43 43 42 41 41 40 40
44 44 44 44 44 43 43 43 43 43 43 42 41 41 41 41 41 40 40 40 40 41 42 42 43 43 43 43 43 43 43 43 43 43 43 43 43 43 42 41 41 41 40
43 43 44 44 44 44 44 43 43 42 41 40 40 39 39 40 40 40 40 40 40 41 42 42 43 43 44 44 43 43 43 43 43 43 43 43 43 42 41 41 41 41 40
43 43 44 44 44 45 44 43 41 40 40 40 40 40 40 40 40 40 40 40 41 41 42 43 43 44 44 44 44 44 44 44 44 43 43 43 42 41 41 40 40 40 39
43 44 44 44 44 44 43 42 41 40 40 40 40 40 40 40 40 40 40 41 41 41 42 43 43 44 44 44 44 43 43 43 43 43 43 42 41 40 39 39 39 38 37
43 43 43 44 44 43 43 42 42 41 41 41 40 40 40 40 40 40 40 41 41 41 42 42 43 43 43 43 43 43 44 44 43 43 42 41 40 39 39 39 39 38 38
42 42 42 42 41 41 41 41 41 41 40 40 39 39 40 40 40 40 40 40 40 40 40 40 41 41 42 42 42 43 43 43 42 42 41 40 40 39 39 39 39 39 39
41 40 40 40 40 40 40 40 40 40 40 39 40 40 40 40 40 40 40 40 40 40 40 40 40 40 40 40 40 41 40 40 40 40 39 39 39 38 38 39 39 39 39
Wind_Direction
264 266 267 267 269 271 271 269 269 267 266 268 270 269 269 271 270 269 270 270 271 272 274 276 277 278 280 282 282 284 286 287 289 289 289 290 290 291 291 292 294 294 294
264 266 267 267 268 271 271 269 269 269 268 268 268 268 270 271 270 270 270 270 270 271 273 275 277 277 279 282 283 284 284 286 288 288 288 288 289 290 291 292 293 293 293
265 266 268 268 269 270 270 270 270 270 270 268 268 267 269 271 272 272 271 272 271 271 272 273 276 277 278 281 282 284 285 286 288 289 289 288 289 289 290 291 292 292 293
267 267 268 269 270 270 271 271 270 270 269 269 268 268 269 271 273 273 272 273 273 273 273 274 275 277 278 280 282 284 285 286 288 289 289 289 288 289 290 291 291 291 291
268 268 269 271 271 271 271 271 270 269 268 268 268 269 271 272 274 273 273 274 273 273 274 274 275 276 278 279 281 282 284 286 287 288 288 288 289 290 291 292 292 291 291
269 269 271 272 272 272 271 269 269 268 268 269 270 271 271 272 273 274 275 274 274 273 275 276 275 275 276 279 279 280 284 286 286 287 287 289 289 290 291 292 292 291 290
270 270 272 272 273 273 272 270 269 269 269 269 270 271 272 273 274 273 273 273 273 274 275 276 277 278 278 278 278 279 282 284 285 286 287 289 289 289 290 291 291 291 290
272 271 273 273 273 273 272 271 270 270 270 271 271 272 273 274 275 275 275 274 275 275 276 277 278 278 278 278 277 279 281 283 284 285 285 287 288 288 289 290 290 289 289
273 272 273 273 273 272 271 271 271 271 272 272 272 272 273 275 275 276 276 276 276 276 276 277 278 278 278 278 279 280 281 282 283 285 285 286 288 288 288 289 290 290 289
273 272 272 272 272 271 271 271 272 272 273 273 272 273 274 275 274 275 275 276 277 277 277 277 278 278 279 280 280 281 282 283 284 285 286 286 287 288 287 288 290 290 290
273 273 272 272 273 273 272 272 273 273 273 273 273 273 274 275 275 275 275 276 277 277 277 277 277 278 279 279 279 280 282 283 284 285 286 286 286 286 286 288 290 291 290
273 273 273 273 273 274 274 273 274 274 274 274 274 274 275 275 275 275 275 276 276 277 276 276 277 278 277 278 279 280 281 283 284 286 286 285 285 286 287 288 290 291 291
273 273 273 273 274 274 274 275 275 275 275 275 275 275 275 274 275 274 275 276 277 278 277 277 277 277 278 278 279 280 281 282 284 285 285 285 285 286 287 288 289 290 290
273 274 274 273 273 274 274 275 275 275 275 275 276 276 275 274 275 275 275 275 276 277 278 277 276 276 277 278 278 280 281 283 283 284 285 285 285 286 286 287 288 290 290
273 274 274 274 273 274 274 275 276 276 276 276 276 276 275 275 275 275 275 275 275 275 275 276 276 277 277 278 278 280 282 283 284 284 285 286 286 286 287 288 289 290 291
274 274 274 274 274 274 274 275 276 277 277 277 277 277 276 275 275 275 275 274 273 272 273 275 276 276 277 278 278 280 281 282 284 284 286 287 287 287 288 289 290 290 291
274 275 275 275 275 275 275 276 277 278 279 278 277 276 275 274 275 275 274 273 272 272 273 274 275 276 277 278 279 279 280 282 283 284 285 287 287 287 288 289 289 290 291
274 274 274 275 275 275 276 277 278 278 278 278 277 276 275 274 274 273 273 272 273 273 273 274 275 276 276 278 279 279 280 282 283 284 285 286 287 288 288 288 289 290 290
274 274 274 274 275 275 276 277 278 278 278 278 278 277 275 274 273 273 272 272 272 273 273 274 274 275 277 278 279 280 280 281 282 283 284 285 286 287 287 287 288 289 289
274 273 273 273 274 275 276 277 277 277 278 278 277 276 275 274 273 273 273 273 273 274 274 275 275 276 277 278 279 280 280 281 282 283 284 285 285 286 286 286 286 287 288
274 273 273 273 273 274 275 276 277 277 277 277 276 276 275 275 273 272 273 274 275 276 275 276 276 278 278 279 279 280 280 281 282 283 284 285 285 285 284 284 285 286 287
274 274 273 273 274 274 274 275 276 276 276 276 276 275 275 275 275 274 274 275 276 276 277 277 278 278 279 279 279 280 280 281 283 284 284 284 283 283 283 284 284 285 286
274 274 274 274 274 274 274 274 274 275 275 276 275 275 275 276 275 275 276 277 276 276 277 277 277 278 278 279 280 280 281 282 283 284 284 283 282 282 282 283 284 285 286
274 275 274 275 275 274 273 273 273 274 275 275 275 275 276 277 277 277 276 277 277 277 277 277 277 277 277 278 279 280 281 283 284 284 284 282 282 281 282 282 283 284 286
274 275 275 274 274 273 272 272 273 273 274 274 275 274 275 277 278 277 276 276 277 277 277 277 277 278 278 279 280 280 281 282 283 283 282 281 281 281 282 283 283 284 284
272 273 274 273 273 273 273 273 273 273 273 273 274 275 276 277 278 277 276 276 276 276 277 278 278 278 279 280 281 281 281 282 282 282 281 281 281 281 282 283 283 283 283
Height
5650 5650 5650 5650 5650 5649 5649 5649 5648 5648 5648 5649 5649 5649 5650 5650 5650 5650 5651 5651 5650 5650 5650 5649 5648 5648 5647 5646 5644 5642 5640 5639 5637 5636 5633 5631 5628 5626 5623 5620 5617 5614 5611
5641 5641 5640 5640 5641 5640 5640 5640 5639 5639 5639 5639 5639 5640 5640 5640 5640 5641 5641 5641 5640 5640 5640 5640 5639 5639 5638 5636 5635 5633 5631 5629 5628 5626 5625 5622 5620 5617 5614 5611 5608 5605 5602
5632 5632 5632 5631 5631 5631 5631 5630 5630 5630 5630 5630 5630 5630 5631 5631 5631 5631 5631 5630 5630 5630 5630 5630 5629 5629 5628 5627 5625 5624 5622 5620 5618 5616 5615 5613 5610 5608 5605 5602 5598 5595 5592
5622 5622 5622 5622 5622 5621 5621 5621 5621 5621 5621 5621 5621 5621 5621 5621 5621 5621 5621 5621 5620 5620 5620 5620 5619 5619 5618 5617 5615 5614 5612 5610 5608 5606 5604 5603 5600 5598 5594 5592 5589 5585 5582
5613 5613 5613 5612 5612 5611 5611 5611 5611 5611 5611 5611 5611 5611 5611 5611 5611 5611 5611 5611 5610 5610 5609 5609 5609 5608 5607 5606 5605 5603 5601 5600 5598 5596 5594 5592 5590 5587 5584 5581 5578 5575 5572
5603 5603 5603 5603 5602 5601 5601 5601 5601 5601 5601 5601 5601 5601 5601 5601 5601 5600 5600 5600 5599 5599 5599 5598 5597 5597 5596 5594 5593 5592 5590 5588 5587 5585 5583 5580 5578 5575 5572 5569 5566 5563 5561
5594 5594 5594 5593 5592 5592 5591 5591 5591 5591 5591 5591 5591 5591 5591 5591 5590 5590 5589 5589 5588 5588 5588 5587 5586 5585 5584 5583 5582 5580 5578 5576 5575 5573 5571 5569 5566 5564 5560 5557 5554 5551 5548
5584 5584 5584 5583 5583 5582 5582 5582 5581 5582 5581 5581 5581 5581 5580 5580 5579 5578 5578 5577 5577 5576 5576 5575 5574 5572 5571 5570 5569 5568 5566 5565 5563 5560 5558 5556 5553 5551 5547 5544 5541 5538 5536
5575 5574 5573 5573 5572 5572 5572 5571 5571 5571 5571 5570 5570 5569 5569 5568 5567 5567 5566 5566 5565 5564 5564 5562 5561 5560 5559 5558 5557 5556 5555 5552 5550 5547 5545 5543 5540 5537 5534 5531 5528 5525 5523
5564 5563 5562 5562 5561 5561 5561 5561 5560 5560 5559 5559 5558 5558 5557 5557 5556 5555 5554 5553 5553 5552 5551 5550 5549 5548 5547 5545 5544 5543 5542 5540 5537 5535 5532 5530 5527 5525 5522 5519 5516 5513 5510
5553 5552 5551 5551 5550 5550 5549 5549 5548 5548 5547 5547 5547 5546 5545 5544 5543 5542 5541 5540 5540 5540 5539 5538 5536 5535 5534 5532 5531 5530 5528 5526 5524 5522 5519 5517 5514 5512 5509 5506 5503 5500 5497
5541 5540 5539 5539 5538 5538 5537 5537 5536 5535 5535 5534 5534 5533 5532 5532 5531 5530 5529 5528 5527 5526 5526 5525 5523 5522 5521 5519 5518 5516 5515 5513 5511 5509 5507 5505 5502 5499 5497 5494 5491 5487 5484
5529 5528 5527 5526 5526 5525 5524 5524 5523 5522 5521 5521 5520 5520 5519 5518 5517 5516 5516 5515 5514 5513 5512 5511 5510 5509 5507 5506 5505 5504 5502 5500 5498 5496 5494 5492 5490 5487 5484 5481 5477 5474 5471
5516 5515 5514 5514 5513 5512 5511 5510 5509 5508 5507 5506 5506 5505 5505 5504 5503 5502 5502 5501 5500 5499 5499 5498 5496 5495 5494 5494 5493 5491 5489 5487 5485 5484 5481 5479 5476 5474 5470 5467 5464 5461 5458
5502 5502 5501 5500 5500 5499 5498 5496 5495 5494 5493 5492 5491 5491 5490 5490 5489 5488 5487 5486 5486 5485 5485 5484 5483 5482 5482 5481 5480 5478 5477 5475 5473 5471 5468 5466 5463 5460 5457 5454 5451 5448 5445
5489 5488 5487 5486 5486 5485 5484 5483 5481 5480 5479 5477 5476 5475 5475 5474 5474 5473 5472 5471 5471 5471 5471 5471 5471 5470 5469 5468 5467 5465 5464 5462 5460 5458 5455 5453 5450 5447 5444 5441 5438 5435 5432
5475 5474 5473 5473 5472 5471 5470 5469 5468 5467 5464 5463 5461 5460 5460 5459 5459 5458 5457 5457 5457 5457 5458 5458 5457 5457 5456 5455 5453 5452 5451 5449 5447 5444 5442 5439 5437 5434 5431 5428 5425 5422 5419
5461 5460 5459 5459 5458 5457 5456 5455 5454 5453 5451 5450 5448 5446 5445 5445 5444 5444 5444 5443 5444 5444 5444 5444 5444 5443 5442 5441 5440 5438 5437 5435 5433 5430 5428 5426 5423 5421 5418 5415 5412 5409 5406
5447 5446 5445 5444 5443 5443 5442 5441 5439 5438 5437 5436 5435 5433 5432 5431 5431 5430 5430 5430 5430 5430 5430 5430 5429 5429 5428 5427 5426 5424 5422 5421 5419 5416 5414 5412 5409 5407 5405 5402 5399 5397 5394
5432 5431 5431 5430 5430 5429 5428 5427 5426 5424 5423 5422 5421 5420 5418 5418 5417 5417 5417 5416 5416 5416 5416 5415 5415 5414 5414 5413 5411 5409 5408 5406 5404 5402 5400 5398 5395 5393 5391 5389 5386 5383 5381
5418 5417 5417 5416 5416 5415 5414 5413 5412 5411 5410 5409 5408 5406 5405 5405 5404 5404 5404 5403 5402 5402 5402 5401 5400 5400 5399 5398 5397 5395 5393 5392 5390 5388 5386 5383 5381 5379 5377 5375 5373 5370 5368
5404 5403 5403 5402 5401 5400 5400 5399 5398 5397 5396 5396 5395 5394 5393 5392 5391 5391 5390 5390 5389 5388 5387 5387 5386 5385 5384 5383 5382 5381 5379 5377 5375 5374 5372 5369 5367 5365 5363 5361 5359 5357 5355
5390 5389 5389 5388 5387 5386 5385 5385 5384 5383 5383 5382 5381 5381 5380 5379 5378 5377 5376 5376 5375 5374 5373 5373 5372 5371 5369 5368 5367 5366 5365 5363 5361 5359 5357 5355 5353 5352 5350 5348 5347 5345 5343
5375 5375 5374 5373 5372 5372 5371 5371 5370 5370 5369 5369 5368 5367 5366 5366 5365 5363 5363 5362 5361 5360 5359 5358 5357 5356 5355 5354 5352 5351 5349 5348 5346 5344 5343 5341 5340 5338 5337 5335 5334 5332 5330
5361 5360 5360 5359 5358 5358 5357 5357 5357 5356 5356 5355 5355 5354 5353 5352 5351 5350 5349 5348 5347 5346 5345 5344 5343 5342 5340 5339 5337 5336 5335 5333 5332 5330 5328 5327 5326 5325 5323 5322 5321 5319 5317
5347 5346 5346 5345 5345 5344 5344 5344 5343 5343 5342 5342 5341 5341 5340 5339 5338 5337 5336 5335 5334 5333 5332 5330 5329 5328 5327 5325 5324 5322 5321 5319 5318 5316 5315 5314 5313 5312 5310 5309 5308 5306 5304